Istanbul, Turkey

7:43 AM +03 on February 22, 2017 (GMT +0300)
Ataturk

Weather History for LTBA - December, 2013

Change the Weather History Date:

Friday, December 20, 2013

  Actual Average Record
Temperature  
Mean Temperature 41 °F -  
Max Temperature 49 °F 47 °F 59 °F (1996)
Min Temperature 33 °F 38 °F 28 °F (2001)
Degree Days  
Heating Degree Days 24    
Moisture  
Dew Point 36 °F    
Average Humidity 72    
Maximum Humidity 93    
Minimum Humidity 47    
Precipitation  
Precipitation 0.00 in - - ()
Sea Level Pressure  
Sea Level Pressure 30.41 in    
Wind  
Wind Speed 3 mph ()    
Max Wind Speed 9 mph    
Max Gust Speed -    
Visibility 4.5 miles    
Events      
Averages and records for this station are not official NWS values.
T = Trace of Precipitation, MM = Missing Value Source: Averaged Metar Reports

Daily Weather History Graph

Daily Weather History Graph

Search for Another Location

Airport or City:

Trip Planner

Search our weather history database for the weather conditions in past years. The results will help you decide how hot, cold, wet, or windy it might be!

Date:

Astronomy

Dec. 20, 2013 Rise Set
Actual Time 7:25 AM EET 4:39 PM EET
Civil Twilight 6:54 AM EET 5:10 PM EET
Nautical Twilight 6:19 AM EET 5:44 PM EET
Astronomical Twilight 5:46 AM EET 6:18 PM EET
Moon 7:42 PM EET (12/20) 9:07 AM EET (12/20)
Length of Visible Light 10h 16m
Length of Day
9h 13m
Waning Gibbous, 92% of the Moon is Illuminated
Dec 20
Waning Gibbous
Dec 25
Last Quarter
Jan 1
New
Jan 8
First Quarter
Jan 16
Full

Hourly Weather History & Observations

Time (EET) Temp. Windchill Dew Point Humidity Pressure Visibility Wind Dir Wind Speed Gust Speed Precip Events Conditions
12:20 AM 44.6 °F 40.7 °F 35.6 °F 71% 30.33 in 3.7 mi ENE 6.9 mph - N/A   Unknown
12:50 AM 44.6 °F 41.4 °F 35.6 °F 71% 30.33 in 4.3 mi NNE 5.8 mph - N/A   Unknown
1:20 AM 41.0 °F - 35.6 °F 81% 30.33 in 4.3 mi Calm Calm - N/A   Unknown
1:50 AM 41.0 °F - 35.6 °F 81% 30.33 in 3.7 mi Calm Calm - N/A   Unknown
2:00 AM 41 °F - 36 °F 74% 30.35 in 4 mi Calm Calm - -   Mist
2:20 AM 37.4 °F 33.8 °F 33.8 °F 87% 30.33 in 3.7 mi WNW 4.6 mph - N/A   Unknown
2:50 AM 35.6 °F 31.7 °F 30.2 °F 81% 30.36 in 4.3 mi WNW 4.6 mph - N/A   Unknown
3:20 AM 33.8 °F 30.8 °F 32.0 °F 93% 30.36 in 3.7 mi West 3.5 mph - N/A   Unknown
3:50 AM 41.0 °F 39.0 °F 35.6 °F 81% 30.36 in 4.3 mi West 3.5 mph - N/A   Unknown
4:20 AM 41.0 °F 39.0 °F 35.6 °F 81% 30.36 in 5.0 mi WSW 3.5 mph - N/A   Unknown
4:50 AM 42.8 °F 38.6 °F 35.6 °F 76% 30.36 in - SW 6.9 mph - N/A   Clear
5:00 AM 43 °F - 36 °F 68% 30.37 in 6 mi SW 6.9 mph - -  
5:20 AM 41.0 °F 38.0 °F 35.6 °F 81% 30.36 in - WNW 4.6 mph - N/A   Clear
5:50 AM 33.8 °F 29.6 °F 32.0 °F 93% 30.36 in 4.3 mi NW 4.6 mph - N/A   Unknown
6:20 AM 33.8 °F 29.6 °F 32.0 °F 93% 30.36 in 4.3 mi North 4.6 mph - N/A   Unknown
6:50 AM 33.8 °F - 32.0 °F 93% 30.39 in 3.7 mi Variable 2.3 mph - N/A   Unknown
7:20 AM 41.0 °F - 37.4 °F 87% 30.39 in 2.8 mi Variable 2.3 mph - N/A   Mist
7:50 AM 42.8 °F 40.1 °F 35.6 °F 76% 30.39 in 2.8 mi ENE 4.6 mph - N/A   Mist
8:00 AM 43 °F - 34 °F 62% 30.41 in 3 mi ENE 4.6 mph - -   Mist
8:08 AM 44.6 °F 42.2 °F 33.8 °F 66% 30.39 in 4.3 mi ESE 4.6 mph - N/A   Unknown
8:20 AM 44.6 °F 40.7 °F 35.6 °F 71% 30.39 in 5.0 mi SE 6.9 mph - N/A   Unknown
8:50 AM 44.6 °F 43.1 °F 35.6 °F 71% 30.39 in 6.2 mi SE 3.5 mph - N/A   Partly Cloudy
9:20 AM 46.4 °F 44.3 °F 33.8 °F 62% 30.42 in - ESE 4.6 mph - N/A   Clear
9:50 AM 48.2 °F - 35.6 °F 62% 30.42 in - East 5.8 mph - N/A   Clear
10:20 AM 48.2 °F - 35.6 °F 62% 30.42 in - Calm Calm - N/A   Clear
10:50 AM 48.2 °F - 35.6 °F 62% 30.42 in - Calm Calm - N/A   Clear
11:00 AM 49 °F - 35 °F 47% 30.44 in 6 mi Calm Calm - -  
11:20 AM 48.2 °F - 35.6 °F 62% 30.42 in - Calm Calm - N/A   Clear
11:50 AM 48.2 °F - 37.4 °F 66% 30.42 in - West 4.6 mph - N/A   Clear
12:20 PM 48.2 °F - 35.6 °F 62% 30.42 in - WSW 3.5 mph - N/A   Clear
12:50 PM 48.2 °F - 35.6 °F 62% 30.42 in - SW 9.2 mph - N/A   Clear
1:20 PM 48.2 °F - 37.4 °F 66% 30.42 in - SW 9.2 mph - N/A   Clear
1:50 PM 48.2 °F - 37.4 °F 66% 30.42 in - SW 9.2 mph - N/A   Clear
2:00 PM 49 °F - 38 °F 57% 30.43 in 6 mi SW 9.2 mph - -  
2:20 PM 48.2 °F - 35.6 °F 62% 30.42 in - SW 8.1 mph - N/A   Clear
2:50 PM 48.2 °F - 33.8 °F 58% 30.42 in - Variable 1.2 mph - N/A   Clear
3:20 PM 48.2 °F - 33.8 °F 58% 30.42 in - SW 6.9 mph - N/A   Clear
3:50 PM 48.2 °F - 33.8 °F 58% 30.42 in - Calm Calm - N/A   Clear
4:20 PM 46.4 °F - 35.6 °F 66% 30.42 in - Calm Calm - N/A   Clear
4:50 PM 46.4 °F - 35.6 °F 66% 30.42 in - Calm Calm - N/A   Clear
5:00 PM 46 °F - 36 °F 57% 30.45 in 6 mi Calm Calm - -  
5:20 PM 46.4 °F - 35.6 °F 66% 30.45 in - Calm Calm - N/A   Clear
5:50 PM 44.6 °F - 35.6 °F 71% 30.45 in - Calm Calm - N/A   Clear
6:20 PM 44.6 °F - 35.6 °F 71% 30.45 in - Calm Calm - N/A   Clear
6:50 PM 44.6 °F - 35.6 °F 71% 30.45 in - Calm Calm - N/A   Clear
7:20 PM 42.8 °F 40.1 °F 37.4 °F 81% 30.45 in - SW 4.6 mph - N/A   Clear
7:50 PM 42.8 °F - 37.4 °F 81% 30.45 in - Calm Calm - N/A   Clear
8:00 PM 44 °F - 36 °F 66% 30.48 in 6 mi Calm Calm - -  
8:20 PM 44.6 °F 42.2 °F 37.4 °F 76% 30.48 in - SW 4.6 mph - N/A   Clear
8:50 PM 46.4 °F 43.5 °F 37.4 °F 71% 30.48 in - SSW 5.8 mph - N/A   Clear
9:20 PM 44.6 °F 41.4 °F 39.2 °F 81% 30.48 in - SW 5.8 mph - N/A   Clear
9:50 PM 44.6 °F - 37.4 °F 76% 30.48 in - Calm Calm - N/A   Clear
10:20 PM 42.8 °F 41.1 °F 37.4 °F 81% 30.48 in - WSW 3.5 mph - N/A   Clear
10:50 PM 44.6 °F 42.2 °F 37.4 °F 76% 30.48 in - SW 4.6 mph - N/A   Clear
11:00 PM 44 °F - 38 °F 72% 30.50 in 6 mi Calm Calm - -  
11:20 PM 41.0 °F 38.0 °F 39.2 °F 93% 30.48 in 4.3 mi WSW 4.6 mph - N/A   Unknown
11:50 PM 41.0 °F 38.0 °F 37.4 °F 87% 30.48 in 3.7 mi WSW 4.6 mph - N/A   Unknown